TimeMDT,TemperatureF,Dew PointF,Humidity,Sea Level PressureIn,VisibilityMPH,Wind Direction,Wind SpeedMPH,Gust SpeedMPH,PrecipitationIn,Events,Conditions,WindDirDegrees,DateUTC
12:15 AM,30.2,26.6,86,30.14,2.5,NNW,5.8,-,N/A,,Clear,330,2013-03-29 06:15:00
12:35 AM,30.2,26.6,86,30.14,2.5,NW,4.6,-,N/A,,Clear,320,2013-03-29 06:35:00
12:55 AM,30.2,26.6,86,30.14,2.5,NW,3.5,-,N/A,,Clear,310,2013-03-29 06:55:00
1:15 AM,30.2,26.6,86,30.14,2.0,NNW,4.6,-,N/A,,Clear,330,2013-03-29 07:15:00
1:35 AM,30.2,26.6,86,30.14,2.0,North,5.8,-,N/A,,Scattered Clouds,350,2013-03-29 07:35:00
1:55 AM,30.2,28.4,93,30.13,2.0,North,4.6,-,N/A,,Mostly Cloudy,350,2013-03-29 07:55:00
2:15 AM,30.2,26.6,86,30.13,2.0,Calm,Calm,-,N/A,,Scattered Clouds,0,2013-03-29 08:15:00
2:35 AM,28.4,26.6,93,30.12,2.0,Calm,Calm,-,N/A,,Clear,0,2013-03-29 08:35:00
2:55 AM,28.4,26.6,93,30.12,2.0,NW,3.5,-,N/A,,Scattered Clouds,320,2013-03-29 08:55:00
3:15 AM,28.4,26.6,93,30.12,1.8,NNW,3.5,-,N/A,,Scattered Clouds,330,2013-03-29 09:15:00
3:35 AM,28.4,26.6,93,30.11,1.8,Calm,Calm,-,N/A,,Mostly Cloudy,0,2013-03-29 09:35:00
3:55 AM,30.2,28.4,93,30.11,1.8,NNE,4.6,-,N/A,,Scattered Clouds,30,2013-03-29 09:55:00
4:15 AM,30.2,26.6,86,30.10,1.8,NNE,6.9,-,N/A,,Overcast,30,2013-03-29 10:15:00
4:35 AM,30.2,26.6,86,30.10,1.8,North,5.8,-,N/A,,Overcast,10,2013-03-29 10:35:00
4:55 AM,28.4,26.6,93,30.10,1.8,NNW,3.5,-,N/A,,Mostly Cloudy,340,2013-03-29 10:55:00
5:15 AM,30.2,28.4,93,30.09,1.5,North,3.5,-,N/A,,Mostly Cloudy,10,2013-03-29 11:15:00
5:55 AM,30.2,26.6,86,30.09,1.8,Calm,Calm,-,N/A,,Overcast,0,2013-03-29 11:55:00
6:15 AM,30.2,26.6,86,30.08,2.0,North,3.5,-,N/A,,Overcast,360,2013-03-29 12:15:00
6:35 AM,30.2,28.4,93,30.08,2.0,North,3.5,-,N/A,,Overcast,350,2013-03-29 12:35:00
7:15 AM,30.2,28.4,93,30.07,1.8,Calm,Calm,-,N/A,,Overcast,0,2013-03-29 13:15:00
7:35 AM,30.2,28.4,93,30.07,2.0,Calm,Calm,-,N/A,,Overcast,0,2013-03-29 13:35:00
7:55 AM,32.0,28.4,87,30.06,2.0,Calm,Calm,-,N/A,,Mostly Cloudy,0,2013-03-29 13:55:00
8:15 AM,33.8,28.4,81,30.05,2.0,East,3.5,-,N/A,,Mostly Cloudy,90,2013-03-29 14:15:00
8:35 AM,33.8,28.4,81,30.05,2.5,North,3.5,-,N/A,,Mostly Cloudy,350,2013-03-29 14:35:00
8:55 AM,32.0,28.4,87,30.05,3.0,Calm,Calm,-,N/A,,Mostly Cloudy,0,2013-03-29 14:55:00
9:15 AM,33.8,32.0,93,30.04,4.0,Calm,Calm,-,N/A,,Mostly Cloudy,0,2013-03-29 15:15:00
9:35 AM,37.4,33.8,87,30.03,5.0,Calm,Calm,-,N/A,,Mostly Cloudy,0,2013-03-29 15:35:00
10:15 AM,37.4,33.8,87,30.04,5.0,West,3.5,-,N/A,,Overcast,280,2013-03-29 16:15:00
10:55 AM,39.2,35.6,87,30.07,8.0,NNW,8.1,-,N/A,,Overcast,340,2013-03-29 16:55:00
11:15 AM,37.4,32.0,81,30.08,5.0,NW,12.7,-,N/A,,Overcast,310,2013-03-29 17:15:00
11:35 AM,37.4,33.8,87,30.07,5.0,NNW,12.7,-,N/A,,Overcast,330,2013-03-29 17:35:00
11:55 AM,37.4,35.6,93,30.07,5.0,North,10.4,-,N/A,,Scattered Clouds,360,2013-03-29 17:55:00
12:15 PM,39.2,35.6,87,30.06,5.0,NNE,4.6,-,N/A,,Clear,20,2013-03-29 18:15:00
12:35 PM,42.8,35.6,76,30.06,5.0,NNE,5.8,-,N/A,,Mostly Cloudy,30,2013-03-29 18:35:00
12:55 PM,42.8,37.4,81,30.06,5.0,NNE,4.6,-,N/A,,Overcast,30,2013-03-29 18:55:00
1:35 PM,42.8,37.4,81,30.05,5.0,NE,6.9,-,N/A,,Mostly Cloudy,50,2013-03-29 19:35:00
1:55 PM,44.6,37.4,76,30.03,5.0,NE,5.8,-,N/A,,Overcast,40,2013-03-29 19:55:00
2:15 PM,44.6,37.4,76,30.03,6.0,NE,4.6,-,N/A,,Overcast,40,2013-03-29 20:15:00
2:35 PM,42.8,37.4,81,30.03,7.0,North,4.6,-,N/A,,Overcast,10,2013-03-29 20:35:00
2:55 PM,44.6,37.4,76,30.03,7.0,NNE,4.6,-,N/A,,Mostly Cloudy,30,2013-03-29 20:55:00
3:15 PM,46.4,37.4,71,30.02,8.0,NE,3.5,-,N/A,,Mostly Cloudy,40,2013-03-29 21:15:00
3:35 PM,48.2,39.2,71,30.02,9.0,Calm,Calm,-,N/A,,Mostly Cloudy,0,2013-03-29 21:35:00
3:55 PM,50.0,41.0,71,30.01,10.0,SSE,3.5,-,N/A,,Mostly Cloudy,160,2013-03-29 21:55:00
4:15 PM,51.8,42.8,71,30.02,10.0,Calm,Calm,-,N/A,,Scattered Clouds,0,2013-03-29 22:15:00
4:35 PM,51.8,42.8,71,30.02,10.0,Calm,Calm,-,N/A,,Partly Cloudy,0,2013-03-29 22:35:00
4:55 PM,53.6,42.8,67,30.02,10.0,Calm,Calm,-,N/A,,Clear,0,2013-03-29 22:55:00
5:15 PM,53.6,42.8,67,30.02,10.0,Calm,Calm,-,N/A,,Clear,0,2013-03-29 23:15:00
5:35 PM,53.6,42.8,67,30.02,10.0,Calm,Calm,-,N/A,,Clear,0,2013-03-29 23:35:00
6:15 PM,53.6,42.8,67,30.02,10.0,Calm,Calm,-,N/A,,Clear,0,2013-03-30 00:15:00
6:55 PM,46.4,41.0,81,30.02,10.0,NNW,4.6,-,N/A,,Clear,330,2013-03-30 00:55:00
7:15 PM,42.8,39.2,87,30.02,9.0,Calm,Calm,-,N/A,,Clear,0,2013-03-30 01:15:00
7:35 PM,42.8,37.4,81,30.02,5.0,Calm,Calm,-,N/A,,Clear,0,2013-03-30 01:35:00
7:55 PM,41.0,37.4,87,30.03,4.0,Calm,Calm,-,N/A,,Clear,0,2013-03-30 01:55:00
8:15 PM,37.4,35.6,93,30.03,3.0,Calm,Calm,-,N/A,,Clear,0,2013-03-30 02:15:00
8:35 PM,37.4,33.8,87,30.04,4.0,NNW,3.5,-,N/A,,Clear,330,2013-03-30 02:35:00
8:55 PM,35.6,33.8,93,30.04,6.0,Calm,Calm,-,N/A,,Clear,0,2013-03-30 02:55:00
9:15 PM,35.6,33.8,93,30.05,6.0,North,3.5,-,N/A,,Clear,360,2013-03-30 03:15:00
9:35 PM,37.4,37.4,100,30.05,9.0,Calm,Calm,-,N/A,,Clear,0,2013-03-30 03:35:00
10:15 PM,35.6,32.0,87,30.06,10.0,Calm,Calm,-,N/A,,Partly Cloudy,0,2013-03-30 04:15:00
10:35 PM,35.6,32.0,87,30.06,9.0,Calm,Calm,-,N/A,,Partly Cloudy,0,2013-03-30 04:35:00
10:55 PM,33.8,30.2,87,30.05,9.0,Calm,Calm,-,N/A,,Clear,0,2013-03-30 04:55:00
11:15 PM,33.8,30.2,87,30.05,7.0,West,4.6,-,N/A,,Clear,260,2013-03-30 05:15:00
11:35 PM,33.8,30.2,87,30.06,6.0,Calm,Calm,-,N/A,,Scattered Clouds,0,2013-03-30 05:35:00
11:55 PM,33.8,30.2,87,30.06,5.0,West,4.6,-,N/A,,Partly Cloudy,260,2013-03-30 05:55:00